Frankfort, MI

2:15 AM EDT on August 25, 2016 (GMT -0400)
Frankfort

Weather History for KFKS - February, 2014

Change the Weather History Date:

Friday, February 28, 2014

  Actual Average (KTVC) Record (KTVC)
Temperature  
Mean Temperature 8 °F 25 °F  
Max Temperature 17 °F 34 °F 54 °F (2016)
Min Temperature -1 °F 17 °F -22 °F (1962)
Degree Days  
Heating Degree Days 57 40  
Month to date heating degree days 1185  
Since 1 July heating degree days 5340  
Moisture  
Dew Point 0 °F    
Average Humidity 71    
Maximum Humidity 86    
Minimum Humidity 48    
Precipitation  
Precipitation 0.00 in 0.05 in 0.52 in (1999)
Month to date precipitation 1.50  
Year to date precipitation 4.32  
Sea Level Pressure  
Sea Level Pressure 30.11 in    
Wind  
Wind Speed 8 mph (SSE)    
Max Wind Speed 17 mph    
Max Gust Speed 26 mph    
Visibility 6 miles    
Events Snow    
T = Trace of Precipitation, MM = Missing Value Source: NWS Daily Summary

Daily Weather History Graph

Daily Weather History Graph

Search for Another Location

Airport or City:

Trip Planner

Search our weather history database for the weather conditions in past years. The results will help you decide how hot, cold, wet, or windy it might be!

Date:

Astronomy

Feb. 28, 2014 Rise Set
Actual Time 7:23 AM EST 6:31 PM EST
Civil Twilight 6:54 AM EST 7:00 PM EST
Nautical Twilight 6:20 AM EST 7:34 PM EST
Astronomical Twilight 5:47 AM EST 8:08 PM EST
Moon 6:38 AM EST (2/28) 6:08 PM EST (2/28)
Length of Visible Light 12h 05m
Length of Day
11h 07m
Waning Crescent, 1% of the Moon is Illuminated
Feb 28
Waning Crescent
Mar 1
New
Mar 8
First Quarter
Mar 16
Full
Mar 23
Last Quarter

Hourly Weather History & Observations

Time (EST) Temp. Windchill Dew Point Humidity Pressure Visibility Wind Dir Wind Speed Gust Speed Precip Events Conditions
12:14 AM -0.9 °F -12.7 °F -6.0 °F 79% 30.17 in 4.0 mi SE 5.8 mph - N/A Snow Light Snow
12:34 AM -1.3 °F -11.4 °F -6.2 °F 80% 30.17 in 4.0 mi ESE 4.6 mph - N/A Snow Light Snow
12:54 AM -1.3 °F -9.3 °F -6.2 °F 80% 30.17 in 3.0 mi SE 3.5 mph - N/A Snow Light Snow
1:10 AM -0.8 °F -8.7 °F -6.0 °F 79% 30.17 in 4.0 mi ESE 3.5 mph - N/A Snow Light Snow
1:32 AM -0.9 °F -12.7 °F -6.2 °F 79% 30.17 in 3.0 mi SE 5.8 mph - N/A Snow Light Snow
1:52 AM -1.3 °F -13.1 °F -6.7 °F 78% 30.17 in 5.0 mi SE 5.8 mph - N/A Snow Light Snow
2:12 AM -1.3 °F -14.5 °F -6.7 °F 78% 30.17 in 5.0 mi SE 6.9 mph - N/A Snow Light Snow
2:32 AM -0.9 °F -15.3 °F -6.2 °F 79% 30.17 in 2.0 mi SE 8.1 mph - N/A Snow Light Snow
2:55 AM -0.4 °F -13.4 °F -5.6 °F 79% 30.18 in 2.5 mi SE 6.9 mph - N/A Snow Light Snow
3:15 AM -0.4 °F -12.0 °F -5.3 °F 80% 30.17 in 3.0 mi ESE 5.8 mph - N/A Snow Light Snow
3:35 AM -0.2 °F -13.2 °F -5.3 °F 79% 30.17 in 3.0 mi SE 6.9 mph - N/A Snow Light Snow
3:55 AM -0.4 °F -12.0 °F -5.4 °F 79% 30.16 in 4.0 mi SE 5.8 mph - N/A Snow Light Snow
4:15 AM -0.4 °F -12.0 °F -5.4 °F 79% 30.17 in 4.0 mi ESE 5.8 mph - N/A Snow Light Snow
4:35 AM 0.1 °F -9.7 °F -5.1 °F 79% 30.17 in 3.0 mi ESE 4.6 mph - N/A Snow Light Snow
4:55 AM 0.5 °F -9.3 °F -4.9 °F 78% 30.18 in 5.0 mi ESE 4.6 mph - N/A Snow Light Snow
5:15 AM 0.9 °F -8.9 °F -5.1 °F 76% 30.17 in 7.0 mi ESE 4.6 mph - N/A Snow Light Snow
5:36 AM 1.0 °F -6.7 °F -5.3 °F 75% 30.18 in 10.0 mi SE 3.5 mph - N/A   Overcast
5:56 AM 0.9 °F -10.5 °F -5.4 °F 75% 30.18 in 7.0 mi SE 5.8 mph - N/A Snow Light Snow
6:16 AM 0.9 °F -13.1 °F -5.8 °F 74% 30.19 in 7.0 mi SE 8.1 mph - N/A Snow Light Snow
6:36 AM 0.1 °F -11.4 °F -6.3 °F 74% 30.19 in 10.0 mi SE 5.8 mph - N/A   Mostly Cloudy
6:56 AM -0.8 °F -18.0 °F -7.6 °F 73% 30.18 in 10.0 mi SE 11.5 mph - N/A   Scattered Clouds
7:11 AM -0.6 °F -13.6 °F -7.8 °F 72% 30.19 in 10.0 mi SSE 6.9 mph - N/A   Scattered Clouds
7:31 AM -0.6 °F -12.2 °F -7.6 °F 72% 30.20 in 10.0 mi SE 5.8 mph - N/A   Overcast
7:51 AM -0.4 °F -15.7 °F -7.8 °F 71% 30.20 in 10.0 mi SSE 9.2 mph - N/A   Overcast
8:12 AM -0.0 °F -16.3 °F -7.6 °F 70% 30.20 in 10.0 mi SSE 10.4 mph - N/A   Mostly Cloudy
8:32 AM 0.3 °F -14.8 °F -7.6 °F 69% 30.20 in 10.0 mi SE 9.2 mph - N/A   Scattered Clouds
8:52 AM 1.9 °F -14.7 °F -6.9 °F 67% 30.20 in 10.0 mi SSE 11.5 mph - N/A   Clear
9:12 AM 1.9 °F -13.8 °F -7.1 °F 66% 30.20 in 10.0 mi SE 10.4 mph - N/A   Scattered Clouds
9:32 AM 3.0 °F -12.5 °F -6.5 °F 65% 30.19 in 10.0 mi SE 10.4 mph - N/A   Mostly Cloudy
9:52 AM 5.5 °F -12.3 °F -5.1 °F 62% 30.19 in 7.0 mi SSE 15.0 mph 19.6 mph N/A   Mostly Cloudy
10:12 AM 6.4 °F -12.3 °F -4.2 °F 62% 30.20 in 4.0 mi South 17.3 mph 23.0 mph N/A   Haze
10:33 AM 7.9 °F -9.3 °F -2.9 °F 61% 30.19 in 2.5 mi SSE 15.0 mph 23.0 mph N/A   Haze
10:53 AM 8.8 °F -8.7 °F -2.0 °F 62% 30.18 in 2.0 mi South 16.1 mph 26.5 mph N/A   Haze
11:13 AM 10.4 °F -6.0 °F -1.3 °F 59% 30.18 in 5.0 mi South 15.0 mph 20.7 mph N/A   Haze
11:33 AM 11.5 °F -4.7 °F -0.4 °F 59% 30.19 in 10.0 mi SSE 15.0 mph 21.9 mph N/A   Mostly Cloudy
11:53 AM 12.9 °F -3.4 °F -0.0 °F 56% 30.16 in 10.0 mi South 16.1 mph 21.9 mph N/A   Scattered Clouds
12:13 PM 13.6 °F -2.4 °F 0.3 °F 55% 30.16 in 10.0 mi South 16.1 mph - N/A   Mostly Cloudy
12:34 PM 14.2 °F -2.3 °F 0.9 °F 56% 30.15 in 10.0 mi SSE 17.3 mph 23.0 mph N/A   Overcast
12:54 PM 14.9 °F -0.3 °F 1.4 °F 55% 30.14 in 10.0 mi SSE 15.0 mph 19.6 mph N/A   Mostly Cloudy
1:14 PM 15.6 °F 1.2 °F 1.9 °F 55% 30.12 in 10.0 mi SSE 13.8 mph 20.7 mph N/A   Mostly Cloudy
1:34 PM 15.4 °F 1.6 °F 1.8 °F 55% 30.11 in 10.0 mi SSE 12.7 mph 18.4 mph N/A   Overcast
1:54 PM 16.0 °F 1.7 °F 2.1 °F 54% 30.11 in 10.0 mi South 13.8 mph - N/A   Overcast
2:14 PM 15.8 °F 1.4 °F 1.0 °F 52% 30.09 in 10.0 mi SSE 13.8 mph 19.6 mph N/A   Overcast
2:34 PM 15.8 °F 2.7 °F 1.0 °F 52% 30.10 in 10.0 mi SSE 11.5 mph 17.3 mph N/A   Overcast
2:55 PM 16.7 °F 2.0 °F 1.6 °F 52% 30.10 in 10.0 mi South 15.0 mph 19.6 mph N/A   Overcast
3:15 PM 16.7 °F 3.8 °F 1.6 °F 52% 30.08 in 10.0 mi SSE 11.5 mph 17.3 mph N/A   Overcast
3:35 PM 16.7 °F 4.5 °F 0.5 °F 49% 30.08 in 10.0 mi South 10.4 mph 18.4 mph N/A   Overcast
3:55 PM 17.1 °F 3.6 °F 0.1 °F 48% 30.07 in 10.0 mi South 12.7 mph - N/A   Overcast
4:15 PM 16.2 °F 1.9 °F 3.6 °F 58% 30.06 in 1.8 mi SSE 13.8 mph 19.6 mph N/A Snow Light Snow
4:35 PM 14.7 °F 0.7 °F 6.8 °F 71% 30.05 in 1.5 mi SSE 12.7 mph - N/A Snow Light Snow
4:55 PM 14.4 °F 2.4 °F 7.7 °F 75% 30.05 in 1.0 mi SSE 9.2 mph 16.1 mph N/A Snow Light Snow
5:16 PM 14.0 °F 2.0 °F 8.4 °F 78% 30.03 in 2.5 mi SE 9.2 mph - N/A Snow Light Snow
5:36 PM 14.0 °F 3.9 °F 7.7 °F 76% 30.03 in 10.0 mi SE 6.9 mph - N/A   Overcast
5:56 PM 13.8 °F 0.2 °F 7.0 °F 74% 30.02 in 10.0 mi SE 11.5 mph - N/A   Overcast
6:16 PM 13.6 °F -1.3 °F 5.0 °F 68% 30.01 in 10.0 mi SE 13.8 mph 18.4 mph N/A   Overcast
6:36 PM 13.1 °F 0.1 °F 4.8 °F 70% 30.00 in 3.0 mi SSE 10.4 mph 19.6 mph N/A Snow Light Snow
6:51 PM 13.1 °F 0.9 °F 5.4 °F 71% 30.01 in 3.0 mi SSE 9.2 mph - N/A Snow Light Snow
7:11 PM 12.7 °F 6.7 °F 6.6 °F 77% 30.01 in 2.5 mi SSE 3.5 mph - N/A Snow Light Snow
7:31 PM 12.6 °F 4.8 °F 7.9 °F 82% 30.03 in 1.2 mi SSE 4.6 mph - N/A Snow Light Snow
7:52 PM 12.4 °F 3.1 °F 8.6 °F 85% 30.02 in 2.0 mi SSE 5.8 mph - N/A Snow Light Snow
8:12 PM 12.6 °F 2.2 °F 8.4 °F 83% 30.02 in 5.0 mi SSE 6.9 mph - N/A Snow Light Snow
8:32 PM 12.6 °F 2.2 °F 8.2 °F 83% 30.01 in 7.0 mi SSE 6.9 mph - N/A Snow Light Snow
8:52 PM 12.7 °F 3.6 °F 7.7 °F 80% 30.01 in 4.0 mi SSE 5.8 mph - N/A Snow Light Snow
9:12 PM 12.9 °F 2.6 °F 7.2 °F 78% 30.01 in 7.0 mi SSE 6.9 mph - N/A Snow Light Snow
9:32 PM 13.1 °F 2.8 °F 6.8 °F 76% 30.01 in 5.0 mi SSE 6.9 mph - N/A Snow Light Snow
9:52 PM 13.1 °F 1.8 °F 7.2 °F 77% 30.01 in 3.0 mi SSE 8.1 mph - N/A Snow Light Snow
10:12 PM 13.3 °F 5.6 °F 7.5 °F 78% 30.01 in 4.0 mi South 4.6 mph - N/A Snow Light Snow
10:33 PM 13.6 °F 4.6 °F 7.7 °F 77% 30.01 in 7.0 mi SSE 5.8 mph - N/A Snow Light Snow
10:53 PM 14.0 °F 3.9 °F 8.1 °F 77% 30.01 in 4.0 mi South 6.9 mph - N/A Snow Light Snow
11:13 PM 14.2 °F 4.1 °F 9.3 °F 81% 30.01 in 2.0 mi South 6.9 mph - N/A Snow Light Snow
11:33 PM 14.7 °F 5.9 °F 10.4 °F 83% 30.00 in 2.0 mi South 5.8 mph - N/A Snow Light Snow
11:53 PM 15.4 °F 6.8 °F 12.0 °F 86% 30.00 in 1.2 mi South 5.8 mph - N/A Snow Light Snow